Tracking 22438 objects as of 25-Feb-2021
HD Live streaming from Space Station
objects crossing your sky now

FLOCK 4EP 7

Track FLOCK 4EP 7 now!
10-day predictions
FLOCK 4EP 7 is classified as:


NORAD ID: 46814
Int'l Code: 2020-077B
Perigee: 516.0 km
Apogee: 532.5 km
Inclination: 97.5 °
Period: 95.0 minutes
Semi major axis: 6895 km
RCS: Unknown
Launch date: October 28, 2020
Source: United States (US)
Launch site: Rocket Lab Launch Complex (RLLC)
aabbcc
Your satellite tracking list
Your tracking list is empty




NASA's NSSDC Master Catalog

Two Line Element Set (TLE):
1 46814U 20077B   21054.82635536  .00003169  00000-0  16698-3 0  9991
2 46814  97.4846 119.7439 0012013 278.1539 193.6582 15.16271020 17860
Source of the keplerian elements: AFSPC